Time,TemperatureF,DewpointF,PressureIn,WindDirection,WindDirectionDegrees,WindSpeedMPH,WindSpeedGustMPH,Humidity,HourlyPrecipIn,Conditions,Clouds,dailyrainin,SoftwareType,DateUTC
2013-05-08 00:02:00,59.0,55.0,-100.00,WNW,295,0.0,3.0,87,-99.99,,,-99.99,,2013-05-08 05:02:00,
2013-05-08 00:12:00,59.0,55.0,-100.00,SW,220,0.0,1.0,88,-99.99,,,-99.99,,2013-05-08 05:12:00,
2013-05-08 00:22:00,59.0,55.0,-100.00,SW,220,0.0,1.0,88,-99.99,,,-99.99,,2013-05-08 05:22:00,
2013-05-08 00:42:00,58.0,55.0,-100.00,WNW,290,0.0,1.0,90,-99.99,,,-99.99,,2013-05-08 05:42:00,
2013-05-08 00:52:00,58.0,55.0,-100.00,NW,315,1.0,3.0,91,-99.99,,,-99.99,,2013-05-08 05:52:00,
2013-05-08 01:01:00,58.0,55.0,-100.00,NW,315,1.0,3.0,91,-99.99,,,-99.99,,2013-05-08 06:01:00,
2013-05-08 01:12:00,58.0,55.0,-100.00,WNW,300,1.0,3.0,91,-99.99,,,-99.99,,2013-05-08 06:12:00,
2013-05-08 01:21:00,57.0,55.0,-100.00,WNW,300,0.0,1.0,92,-99.99,,,-99.99,,2013-05-08 06:21:00,
2013-05-08 01:32:00,57.0,55.0,-100.00,WNW,300,0.0,1.0,92,-99.99,,,-99.99,,2013-05-08 06:32:00,
2013-05-08 01:42:00,57.0,54.0,-100.00,West,265,0.0,0.0,92,-99.99,,,-99.99,,2013-05-08 06:42:00,
2013-05-08 01:52:00,56.0,54.0,-100.00,ENE,75,0.0,0.0,93,-99.99,,,-99.99,,2013-05-08 06:52:00,
2013-05-08 02:02:00,56.0,54.0,-100.00,ENE,75,0.0,0.0,93,-99.99,,,-99.99,,2013-05-08 07:02:00,
2013-05-08 02:11:00,56.0,54.0,-100.00,ENE,65,0.0,0.0,94,-99.99,,,-99.99,,2013-05-08 07:11:00,
2013-05-08 02:21:00,55.0,54.0,-100.00,West,280,1.0,1.0,95,-99.99,,,-99.99,,2013-05-08 07:21:00,
2013-05-08 02:32:00,55.0,54.0,-100.00,West,280,1.0,1.0,95,-99.99,,,-99.99,,2013-05-08 07:32:00,
2013-05-08 02:42:00,55.0,53.0,-100.00,ESE,115,1.0,1.0,95,-99.99,,,-99.99,,2013-05-08 07:42:00,
2013-05-08 02:52:00,55.0,54.0,-100.00,East,80,0.0,0.0,96,-99.99,,,-99.99,,2013-05-08 07:52:00,
2013-05-08 03:01:00,55.0,54.0,-100.00,East,80,0.0,0.0,96,-99.99,,,-99.99,,2013-05-08 08:01:00,
2013-05-08 03:12:00,55.0,54.0,-100.00,South,170,0.0,0.0,96,-99.99,,,-99.99,,2013-05-08 08:12:00,
2013-05-08 03:21:00,54.0,53.0,-100.00,ENE,60,0.0,0.0,96,-99.99,,,-99.99,,2013-05-08 08:21:00,
2013-05-08 03:32:00,54.0,53.0,-100.00,ENE,60,0.0,0.0,96,-99.99,,,-99.99,,2013-05-08 08:32:00,
2013-05-08 03:42:00,54.0,53.0,-100.00,SW,225,0.0,1.0,96,-99.99,,,-99.99,,2013-05-08 08:42:00,
2013-05-08 03:52:00,54.0,53.0,-100.00,SSW,200,0.0,0.0,96,-99.99,,,-99.99,,2013-05-08 08:52:00,
2013-05-08 04:02:00,54.0,53.0,-100.00,SSW,200,0.0,0.0,96,-99.99,,,-99.99,,2013-05-08 09:02:00,
2013-05-08 04:11:00,54.0,53.0,-100.00,WSW,255,0.0,0.0,97,-99.99,,,-99.99,,2013-05-08 09:11:00,
2013-05-08 04:21:00,53.0,52.0,-100.00,West,260,3.0,3.0,97,-99.99,,,-99.99,,2013-05-08 09:21:00,
2013-05-08 04:32:00,53.0,52.0,-100.00,West,260,3.0,3.0,97,-99.99,,,-99.99,,2013-05-08 09:32:00,
2013-05-08 04:42:00,53.0,53.0,-100.00,SW,220,0.0,0.0,97,-99.99,,,-99.99,,2013-05-08 09:42:00,
2013-05-08 04:53:00,53.0,52.0,-100.00,NW,325,0.0,0.0,97,-99.99,,,-99.99,,2013-05-08 09:53:00,
2013-05-08 05:02:00,53.0,52.0,-100.00,NW,325,0.0,0.0,97,-99.99,,,-99.99,,2013-05-08 10:02:00,
2013-05-08 05:12:00,53.0,52.0,-100.00,WNW,285,0.0,0.0,97,-99.99,,,-99.99,,2013-05-08 10:12:00,
2013-05-08 05:22:00,52.0,52.0,-100.00,South,180,0.0,0.0,97,-99.99,,,-99.99,,2013-05-08 10:22:00,
2013-05-08 05:33:00,52.0,52.0,-100.00,South,180,0.0,0.0,97,-99.99,,,-99.99,,2013-05-08 10:33:00,
2013-05-08 05:42:00,52.0,52.0,-100.00,West,275,0.0,0.0,97,-99.99,,,-99.99,,2013-05-08 10:42:00,
2013-05-08 05:52:00,52.0,52.0,-100.00,NW,320,0.0,1.0,97,-99.99,,,-99.99,,2013-05-08 10:52:00,
2013-05-08 06:02:00,52.0,52.0,-100.00,NW,320,0.0,1.0,97,-99.99,,,-99.99,,2013-05-08 11:02:00,
2013-05-08 06:11:00,52.0,52.0,-100.00,WNW,295,0.0,0.0,97,-99.99,,,-99.99,,2013-05-08 11:11:00,
2013-05-08 06:22:00,52.0,51.0,-100.00,West,260,0.0,0.0,97,-99.99,,,-99.99,,2013-05-08 11:22:00,
2013-05-08 06:32:00,52.0,51.0,-100.00,West,260,0.0,0.0,97,-99.99,,,-99.99,,2013-05-08 11:32:00,
2013-05-08 06:42:00,51.0,51.0,-100.00,SW,220,0.0,1.0,97,-99.99,,,-99.99,,2013-05-08 11:42:00,
2013-05-08 06:52:00,51.0,50.0,-100.00,South,170,0.0,0.0,97,-99.99,,,-99.99,,2013-05-08 11:52:00,
2013-05-08 07:01:00,51.0,50.0,-100.00,South,170,0.0,0.0,97,-99.99,,,-99.99,,2013-05-08 12:01:00,
2013-05-08 07:11:00,52.0,51.0,-100.00,NE,50,0.0,0.0,97,-99.99,,,-99.99,,2013-05-08 12:11:00,
2013-05-08 07:21:00,53.0,52.0,-100.00,NNW,335,0.0,0.0,97,-99.99,,,-99.99,,2013-05-08 12:21:00,
2013-05-08 07:32:00,53.0,52.0,-100.00,NNW,335,0.0,0.0,97,-99.99,,,-99.99,,2013-05-08 12:32:00,
2013-05-08 07:41:00,53.0,52.0,-100.00,NNW,335,0.0,0.0,97,-99.99,,,-99.99,,2013-05-08 12:41:00,
2013-05-08 07:52:00,56.0,55.0,-100.00,NE,50,0.0,0.0,97,-99.99,,,-99.99,,2013-05-08 12:52:00,
2013-05-08 08:01:00,56.0,55.0,-100.00,NE,50,0.0,0.0,97,-99.99,,,-99.99,,2013-05-08 13:01:00,
2013-05-08 08:11:00,57.0,56.0,-100.00,ENE,75,0.0,0.0,97,-99.99,,,-99.99,,2013-05-08 13:11:00,
2013-05-08 08:21:00,59.0,58.0,-100.00,SSW,195,0.0,1.0,97,-99.99,,,-99.99,,2013-05-08 13:21:00,
2013-05-08 08:32:00,59.0,58.0,-100.00,SSW,195,0.0,1.0,97,-99.99,,,-99.99,,2013-05-08 13:32:00,
2013-05-08 08:42:00,61.0,60.0,-100.00,NE,50,0.0,0.0,97,-99.99,,,-99.99,,2013-05-08 13:42:00,
2013-05-08 08:52:00,63.0,62.0,-100.00,North,0,3.0,4.0,97,-99.99,,,-99.99,,2013-05-08 13:52:00,
2013-05-08 09:02:00,63.0,62.0,-100.00,North,0,3.0,4.0,97,-99.99,,,-99.99,,2013-05-08 14:02:00,
2013-05-08 09:11:00,64.0,62.0,-100.00,North,0,1.0,2.0,94,-99.99,,,-99.99,,2013-05-08 14:11:00,
2013-05-08 09:21:00,66.0,60.0,-100.00,North,0,3.0,4.0,80,-99.99,,,-99.99,,2013-05-08 14:21:00,
2013-05-08 09:32:00,66.0,60.0,-100.00,North,0,3.0,4.0,80,-99.99,,,-99.99,,2013-05-08 14:32:00,
2013-05-08 09:42:00,68.0,56.0,-100.00,NW,310,4.0,6.0,65,-99.99,,,-99.99,,2013-05-08 14:42:00,
2013-05-08 09:52:00,69.0,55.0,-100.00,NW,315,6.0,9.0,60,-99.99,,,-99.99,,2013-05-08 14:52:00,
2013-05-08 10:02:00,69.0,55.0,-100.00,NW,315,6.0,9.0,60,-99.99,,,-99.99,,2013-05-08 15:02:00,
2013-05-08 10:11:00,71.0,54.0,-100.00,NW,305,6.0,8.0,56,-99.99,,,-99.99,,2013-05-08 15:11:00,
2013-05-08 10:21:00,72.0,54.0,-100.00,West,280,2.0,3.0,53,-99.99,,,-99.99,,2013-05-08 15:21:00,
2013-05-08 10:33:00,72.0,54.0,-100.00,West,280,2.0,3.0,53,-99.99,,,-99.99,,2013-05-08 15:33:00,
2013-05-08 10:42:00,73.0,54.0,-100.00,NW,320,6.0,9.0,51,-99.99,,,-99.99,,2013-05-08 15:42:00,
2013-05-08 10:53:00,74.0,52.0,-100.00,NNW,340,6.0,9.0,46,-99.99,,,-99.99,,2013-05-08 15:53:00,
2013-05-08 11:03:00,74.0,52.0,-100.00,NNW,340,6.0,9.0,46,-99.99,,,-99.99,,2013-05-08 16:03:00,
2013-05-08 11:12:00,74.0,52.0,-100.00,NNW,340,6.0,9.0,46,-99.99,,,-99.99,,2013-05-08 16:12:00,
2013-05-08 11:23:00,76.0,50.0,-100.00,NW,305,6.0,6.0,40,-99.99,,,-99.99,,2013-05-08 16:23:00,
2013-05-08 11:33:00,76.0,50.0,-100.00,NW,305,6.0,6.0,40,-99.99,,,-99.99,,2013-05-08 16:33:00,
2013-05-08 11:42:00,77.0,50.0,-100.00,NNW,340,9.0,12.0,38,-99.99,,,-99.99,,2013-05-08 16:42:00,
2013-05-08 11:52:00,78.0,49.0,-100.00,NNW,345,6.0,9.0,36,-99.99,,,-99.99,,2013-05-08 16:52:00,
2013-05-08 12:02:00,78.0,49.0,-100.00,NNW,345,6.0,9.0,36,-99.99,,,-99.99,,2013-05-08 17:02:00,
2013-05-08 12:12:00,78.0,49.0,-100.00,NNW,345,6.0,9.0,36,-99.99,,,-99.99,,2013-05-08 17:12:00,
2013-05-08 12:22:00,80.0,49.0,-100.00,NNE,20,0.0,2.0,34,-99.99,,,-99.99,,2013-05-08 17:22:00,
2013-05-08 12:32:00,80.0,49.0,-100.00,NNE,20,0.0,2.0,34,-99.99,,,-99.99,,2013-05-08 17:32:00,
2013-05-08 12:41:00,80.0,49.0,-100.00,NNE,20,0.0,2.0,34,-99.99,,,-99.99,,2013-05-08 17:41:00,
2013-05-08 12:52:00,81.0,49.0,-100.00,North,0,6.0,8.0,33,-99.99,,,-99.99,,2013-05-08 17:52:00,
2013-05-08 13:02:00,81.0,49.0,-100.00,North,0,6.0,8.0,33,-99.99,,,-99.99,,2013-05-08 18:02:00,
2013-05-08 13:11:00,80.0,47.0,-100.00,WNW,290,6.0,9.0,31,-99.99,,,-99.99,,2013-05-08 18:11:00,
2013-05-08 13:21:00,81.0,48.0,-100.00,North,350,0.0,1.0,31,-99.99,,,-99.99,,2013-05-08 18:21:00,
2013-05-08 13:32:00,81.0,48.0,-100.00,North,350,0.0,1.0,31,-99.99,,,-99.99,,2013-05-08 18:32:00,
2013-05-08 13:42:00,82.0,48.0,-100.00,SSE,160,0.0,2.0,31,-99.99,,,-99.99,,2013-05-08 18:42:00,
2013-05-08 13:52:00,83.0,50.0,-100.00,SSW,200,4.0,8.0,32,-99.99,,,-99.99,,2013-05-08 18:52:00,
2013-05-08 14:01:00,83.0,50.0,-100.00,SSW,200,4.0,8.0,32,-99.99,,,-99.99,,2013-05-08 19:01:00,
2013-05-08 14:11:00,81.0,46.0,-100.00,SSW,195,4.0,6.0,29,-99.99,,,-99.99,,2013-05-08 19:11:00,
2013-05-08 14:22:00,83.0,46.0,-100.00,WSW,250,3.0,4.0,28,-99.99,,,-99.99,,2013-05-08 19:22:00,
2013-05-08 14:32:00,83.0,46.0,-100.00,WSW,250,3.0,4.0,28,-99.99,,,-99.99,,2013-05-08 19:32:00,
2013-05-08 14:42:00,83.0,47.0,-100.00,SW,230,3.0,4.0,29,-99.99,,,-99.99,,2013-05-08 19:42:00,
2013-05-08 14:52:00,82.0,46.0,-100.00,NW,305,1.0,2.0,28,-99.99,,,-99.99,,2013-05-08 19:52:00,
2013-05-08 15:02:00,82.0,46.0,-100.00,NW,305,1.0,2.0,28,-99.99,,,-99.99,,2013-05-08 20:02:00,
2013-05-08 15:11:00,83.0,48.0,-100.00,SW,235,4.0,6.0,29,-99.99,,,-99.99,,2013-05-08 20:11:00,
2013-05-08 15:22:00,82.0,48.0,-100.00,SW,215,6.0,6.0,31,-99.99,,,-99.99,,2013-05-08 20:22:00,
2013-05-08 15:32:00,82.0,48.0,-100.00,SW,215,6.0,6.0,31,-99.99,,,-99.99,,2013-05-08 20:32:00,
2013-05-08 15:42:00,80.0,46.0,-100.00,SW,235,3.0,6.0,30,-99.99,,,-99.99,,2013-05-08 20:42:00,
2013-05-08 15:52:00,81.0,47.0,-100.00,West,270,3.0,6.0,30,-99.99,,,-99.99,,2013-05-08 20:52:00,
2013-05-08 16:01:00,81.0,47.0,-100.00,West,270,3.0,6.0,30,-99.99,,,-99.99,,2013-05-08 21:01:00,
2013-05-08 16:12:00,80.0,46.0,-100.00,WSW,245,1.0,2.0,30,-99.99,,,-99.99,,2013-05-08 21:12:00,
2013-05-08 16:21:00,80.0,46.0,-100.00,SE,125,0.0,0.0,31,-99.99,,,-99.99,,2013-05-08 21:21:00,
2013-05-08 16:33:00,80.0,46.0,-100.00,SE,125,0.0,0.0,31,-99.99,,,-99.99,,2013-05-08 21:33:00,
2013-05-08 16:43:00,81.0,48.0,-100.00,South,185,4.0,6.0,32,-99.99,,,-99.99,,2013-05-08 21:43:00,
2013-05-08 16:53:00,82.0,47.0,-100.00,West,280,6.0,9.0,30,-99.99,,,-99.99,,2013-05-08 21:53:00,
2013-05-08 17:03:00,82.0,47.0,-100.00,West,280,6.0,9.0,30,-99.99,,,-99.99,,2013-05-08 22:03:00,
2013-05-08 17:12:00,81.0,47.0,-100.00,South,185,3.0,6.0,30,-99.99,,,-99.99,,2013-05-08 22:12:00,
2013-05-08 17:22:00,81.0,46.0,-100.00,SE,135,2.0,4.0,29,-99.99,,,-99.99,,2013-05-08 22:22:00,
2013-05-08 17:33:00,81.0,46.0,-100.00,SE,135,2.0,4.0,29,-99.99,,,-99.99,,2013-05-08 22:33:00,
2013-05-08 17:42:00,81.0,45.0,-100.00,SSW,195,8.0,9.0,29,-99.99,,,-99.99,,2013-05-08 22:42:00,
2013-05-08 17:53:00,80.0,45.0,-100.00,SSW,200,6.0,8.0,29,-99.99,,,-99.99,,2013-05-08 22:53:00,
2013-05-08 18:01:00,80.0,45.0,-100.00,SSW,200,6.0,8.0,29,-99.99,,,-99.99,,2013-05-08 23:01:00,
2013-05-08 18:11:00,80.0,45.0,-100.00,SSW,200,6.0,8.0,29,-99.99,,,-99.99,,2013-05-08 23:11:00,
2013-05-08 18:22:00,80.0,46.0,-100.00,SSE,165,3.0,4.0,30,-99.99,,,-99.99,,2013-05-08 23:22:00,
2013-05-08 18:32:00,80.0,46.0,-100.00,SSE,165,3.0,4.0,30,-99.99,,,-99.99,,2013-05-08 23:32:00,
2013-05-08 18:42:00,80.0,46.0,-100.00,South,185,1.0,4.0,30,-99.99,,,-99.99,,2013-05-08 23:42:00,
2013-05-08 18:52:00,80.0,46.0,-100.00,SSW,205,3.0,6.0,30,-99.99,,,-99.99,,2013-05-08 23:52:00,
2013-05-08 19:02:00,80.0,46.0,-100.00,SSW,205,3.0,6.0,30,-99.99,,,-99.99,,2013-05-09 00:02:00,
2013-05-08 19:12:00,80.0,46.0,-100.00,SSW,205,3.0,6.0,30,-99.99,,,-99.99,,2013-05-09 00:12:00,
2013-05-08 19:21:00,78.0,46.0,-100.00,South,190,3.0,4.0,32,-99.99,,,-99.99,,2013-05-09 00:21:00,
2013-05-08 19:32:00,78.0,46.0,-100.00,South,190,3.0,4.0,32,-99.99,,,-99.99,,2013-05-09 00:32:00,
2013-05-08 19:42:00,78.0,46.0,-100.00,South,190,3.0,4.0,32,-99.99,,,-99.99,,2013-05-09 00:42:00,
2013-05-08 19:52:00,77.0,48.0,-100.00,South,180,2.0,3.0,36,-99.99,,,-99.99,,2013-05-09 00:52:00,
2013-05-08 20:01:00,77.0,48.0,-100.00,South,180,2.0,3.0,36,-99.99,,,-99.99,,2013-05-09 01:01:00,
2013-05-08 20:11:00,76.0,47.0,-100.00,SW,230,2.0,3.0,37,-99.99,,,-99.99,,2013-05-09 01:11:00,
2013-05-08 20:22:00,75.0,49.0,-100.00,SSW,205,1.0,2.0,40,-99.99,,,-99.99,,2013-05-09 01:22:00,
2013-05-08 20:32:00,75.0,49.0,-100.00,SSW,205,1.0,2.0,40,-99.99,,,-99.99,,2013-05-09 01:32:00,
2013-05-08 20:42:00,73.0,50.0,-100.00,South,190,1.0,3.0,45,-99.99,,,-99.99,,2013-05-09 01:42:00,
2013-05-08 20:52:00,71.0,52.0,-100.00,South,185,2.0,3.0,52,-99.99,,,-99.99,,2013-05-09 01:52:00,
2013-05-08 21:02:00,71.0,52.0,-100.00,South,185,2.0,3.0,52,-99.99,,,-99.99,,2013-05-09 02:02:00,
2013-05-08 21:11:00,71.0,52.0,-100.00,SSW,195,1.0,2.0,52,-99.99,,,-99.99,,2013-05-09 02:11:00,
2013-05-08 21:22:00,70.0,53.0,-100.00,South,190,1.0,3.0,54,-99.99,,,-99.99,,2013-05-09 02:22:00,
2013-05-08 21:32:00,70.0,53.0,-100.00,South,190,1.0,3.0,54,-99.99,,,-99.99,,2013-05-09 02:32:00,
2013-05-08 21:42:00,70.0,53.0,-100.00,South,190,1.0,3.0,54,-99.99,,,-99.99,,2013-05-09 02:42:00,
2013-05-08 22:01:00,68.0,56.0,-100.00,SSW,200,1.0,3.0,64,-99.99,,,-99.99,,2013-05-09 03:01:00,
2013-05-08 22:11:00,68.0,56.0,-100.00,SSW,210,0.0,1.0,67,-99.99,,,-99.99,,2013-05-09 03:11:00,
2013-05-08 22:21:00,67.0,57.0,-100.00,South,190,3.0,4.0,72,-99.99,,,-99.99,,2013-05-09 03:21:00,
2013-05-08 22:33:00,67.0,57.0,-100.00,South,190,3.0,4.0,72,-99.99,,,-99.99,,2013-05-09 03:33:00,
2013-05-08 22:43:00,68.0,58.0,-100.00,WSW,250,4.0,4.0,70,-99.99,,,-99.99,,2013-05-09 03:43:00,
2013-05-08 22:53:00,67.0,57.0,-100.00,West,280,2.0,3.0,70,-99.99,,,-99.99,,2013-05-09 03:53:00,
2013-05-08 23:03:00,67.0,57.0,-100.00,West,280,2.0,3.0,70,-99.99,,,-99.99,,2013-05-09 04:03:00,
2013-05-08 23:12:00,69.0,55.0,-100.00,WNW,290,3.0,4.0,61,-99.99,,,-99.99,,2013-05-09 04:12:00,
2013-05-08 23:23:00,69.0,55.0,-100.00,North,0,1.0,3.0,61,-99.99,,,-99.99,,2013-05-09 04:23:00,
2013-05-08 23:33:00,69.0,55.0,-100.00,North,0,1.0,3.0,61,-99.99,,,-99.99,,2013-05-09 04:33:00,
2013-05-08 23:43:00,69.0,56.0,-100.00,SSE,160,0.0,0.0,63,-99.99,,,-99.99,,2013-05-09 04:43:00,
2013-05-08 23:53:00,68.0,56.0,-100.00,East,90,0.0,0.0,67,-99.99,,,-99.99,,2013-05-09 04:53:00,